Regional Weather Roundup
Issued by NWS

Home | Current Version | Previous Version | Text Only | Print | Product List | Glossary Off
Versions: 1 2 3 4 5 6 7 8 9 10 11 12 13 14 15 16 17 18 19 20 21 22 23 24 25 26 27 28 29 30 31 32 33 34 35 36 37 38 39 40 41 42 43 44 45 46 47 48 49 50

262
ASUS43 KMPX 280910
RWRMN
WEATHER ROUNDUP FOR MINNESOTA
NATIONAL WEATHER SERVICE TWIN CITIES/CHANHASSEN MN
300 AM CST TUE FEB 28 2017


NOTE: "FAIR" INDICATES FEW OR NO CLOUDS BELOW 12,000 FEET WITH NO
SIGNIFICANT WEATHER AND/OR OBSTRUCTIONS TO VISIBILITY. N/A MEANS
CURRENT SKY AND/OR WEATHER CONDITIONS ARE NOT AVAILABLE.

MNZ060>063-068>070-281000-
   Twin Cities Metro

CITY           SKY/WX    TMP DP  RH WIND       PRES   REMARKS
TWIN CITIES    CLOUDY    37  28  70 CALM      29.76S
ST PAUL        CLOUDY    39  32  76 SE5       29.77F
CRYSTAL        CLOUDY    36  27  69 CALM      29.75S
BLAINE         CLOUDY    36  30  80 CALM      29.77R
LAKEVILLE      CLOUDY    32  30  93 CALM      29.75F
EDEN PRAIRIE   CLOUDY    38  29  70 E3        29.74F
SOUTH ST PAUL  MOCLDY    38  31  74 CALM      29.76F
LAKE ELMO      CLOUDY    39  32  75 CALM      29.77S
$$
MNZ001>005-007-008-013>017-022>024-027-028-281000-
   Northwest Minnesota

CITY           SKY/WX    TMP DP  RH WIND       PRES   REMARKS
BEMIDJI        CLOUDY    23  14  69 N9        29.82S WCI  13
HALLOCK        PTCLDY     9   3  78 N9        29.96S WCI  -5
ROSEAU         CLOUDY    10   7  85 N7        29.93F WCI   0
WARROAD        CLEAR     14  10  85 N8        29.93F WCI   3
THIEF RVR FALL CLOUDY    19  15  84 NE13      29.90S WCI   6
CROOKSTON      CLOUDY    19  18  93 NE8       29.91F WCI   9
FOSSTON        CLOUDY    21  16  79 NE10      29.85F WCI  10
DETROIT LAKES  CLOUDY    28  21  74 NE6       29.81R WCI  22
MOORHEAD       CLOUDY    23  19  86 N15       29.86S WCI  10
PARK RAPIDS    CLOUDY    27  16  63 N7        29.79S WCI  19
MAHNOMEN       CLOUDY    23  17  77 NE13      29.83S WCI  11
$$
MNZ006-009>011-018-025>026-281000-
   North Central Minnesota

CITY           SKY/WX    TMP DP  RH WIND       PRES   REMARKS
BAUDETTE       CLOUDY    18  13  80 N9        29.89F WCI   7
FLAG ISLAND    MOCLDY    10   7  85 N8        29.94S WCI  -1
INTL FALLS     CLOUDY    21  17  84 NE7       29.87F WCI  12
WASKISH        CLOUDY    21  18  86 NE7       29.87R WCI  13
BIG FORK       CLOUDY    25  19  80 MISG      29.82F
LONGVILLE      CLOUDY    28  23  80 CALM      29.79S
GRAND RAPIDS   CLOUDY    30  26  85 CALM      29.80F
CRANE LAKE     LGT SNOW  21  21 100 N3        29.89R
ORR            CLOUDY    23  19  86 CALM      29.81S
COOK           CLOUDY    25  23  93 NE5       29.82S WCI  19
WALKER         FAIR      26  18  71 N6        29.80S WCI  19
$$
MNZ012-019>021-037-281000-
   Northeast Minnesota

CITY           SKY/WX    TMP DP  RH WIND       PRES   REMARKS
DULUTH         CLOUDY    28  25  88 NE3       29.80S
ELY            LGT SNOW  25  23  93 CALM      29.82S
HIBBING        FLURRIES  28  25  88 N6        29.80R WCI  22
EVELETH        LGT SNOW  30  26  84 CALM      29.80F
DULUTH HARBOR  CLOUDY    32  30  93 NE15      29.84S WCI  22
TWO HARBORS    CLOUDY    30  25  80 N5        29.80F WCI  25
SILVER BAY     CLOUDY    27  27 100 N3        29.81F
GRAND MARAIS     N/A     30  25  81 VRB7      29.85F WCI  23
G MARAIS ARPRT CLOUDY    19  16  86 CALM      29.81F
$$
MNZ029>031-032-039>041-046>048-054>057-064-281000-
   West Central Minnesota

CITY           SKY/WX    TMP DP  RH WIND       PRES   REMARKS
FERGUS FALLS   CLOUDY    27  21  80 N5        29.84S WCI  21
WHEATON        FLURRIES  27  23  86 NW12      29.83S WCI  16
MORRIS         LGT SNOW  30  30 100 N9        29.78S WCI  22
ALEXANDRIA     CLOUDY    32  28  85 NW3       29.78R
ELBOW LAKE     CLOUDY    30  28  91 N6        29.79F WCI  24
WADENA         CLOUDY    28  25  86 N5        29.78R WCI  23
GLENWOOD       LGT SNOW  32  30  93 N3        29.78S
APPLETON       MOCLDY    34  30  86 N9        29.76F WCI  26
BENSON         PTCLDY    36  28  75 NE8       29.77F
ORTONVILLE     LGT SNOW  28  27  93 N16       29.76F WCI  17
MADISON        CLOUDY    34  34 100 NW12      29.77S WCI  25
WILLMAR        FAIR      34  30  86 NE8       29.77F WCI  27
$$
MNZ033>034-036-042>043-049>051-058-059-281000-
   Central Minnesota

CITY           SKY/WX    TMP DP  RH WIND       PRES   REMARKS
ST CLOUD       CLOUDY    34  28  79 N5        29.78S WCI  30
SAUK CENTRE    LGT RAIN  32  29  86 NW3       29.79R
PAYNESVILLE    CLOUDY    33  30  88 N6        29.77F WCI  28
AITKIN         CLOUDY    34  25  69 CALM      29.77S
PINE RIVER     CLOUDY    30  25  80 CALM      29.82S
BRAINERD       CLOUDY    32  26  78 CALM      29.78S
STAPLES        FLURRIES  30  27  86 CALM      29.79R
LONG PRAIRIE   CLOUDY    32  28  86 CALM      29.79R
LITTLE FALLS   CLOUDY    34  27  75 CALM      29.79R
LITCHFIELD     CLOUDY    36  30  80 N6        29.76F
BUFFALO        CLOUDY    34  29  83 NW5       29.78R WCI  30
MAPLE LAKE     CLOUDY    35  31  86 NW3       29.78R
HUTCHINSON     PTCLDY    34  32  91 N7        29.76S WCI  28
$$
MNZ037-044-045-052-053-281000-
   East Central Minnesota

CITY           SKY/WX    TMP DP  RH WIND       PRES   REMARKS
PRINCETON      CLOUDY    36  27  69 CALM      29.79R
MORA           CLOUDY    32  27  80 N3        29.81R
CAMBRIDGE      CLOUDY    36  27  69 CALM      29.76S
RUSH CITY      CLOUDY    32  26  80 CALM      29.77F
MOOSE LAKE     CLOUDY    28  27  93 CALM      29.80R
HINCKLEY       CLOUDY    32  27  80 N5        29.79S WCI  27
CLOQUET        CLOUDY    28  25  86 CALM      29.80F
MCGREGOR       CLOUDY    32  27  80 E6        29.79F WCI  26
$$
MNZ071>073-080-081-089-090-097-098-281000-
   Southwest Minnesota

CITY           SKY/WX    TMP DP  RH WIND       PRES   REMARKS
MONTEVIDEO     CLOUDY    32  30  93 N9        29.75F WCI  24
GRANITE FALLS  CLOUDY    35  32  88 N5        29.76R WCI  31
CANBY          CLOUDY    32  31  95 NW9       29.75F WCI  24
MARSHALL       CLOUDY    32  30  92 NW8       29.75R WCI  25
REDWOOD FALLS  MOCLDY    34  29  82 NW3       29.74S
OLIVIA         CLOUDY    34  32  93 N6        29.74F WCI  29
PIPESTONE      MOCLDY    37  27  65 E6        29.66F
WINDOM         PTCLDY    36  30  80 SE3       29.69F
WORTHINGTON    PTCLDY    31  28  89 E6        29.68F WCI  25
JACKSON        PTCLDY    34  32  93 CALM      29.69F
TRACY          CLOUDY    32  32  99 N7        29.72F FOG     WCI  26
SLAYTON        MOCLDY    32  31  95 N3        29.69F
$$
MNZ065>067-074>077-082>085-091>093-281000-
   South Central Minnesota

CITY           SKY/WX    TMP DP  RH WIND       PRES   REMARKS
MANKATO          N/A     36  31  82 E3        29.73F
NEW ULM        CLOUDY    36  28  75 CALM      29.72F
ST JAMES       PTCLDY    34  30  86 CALM      29.72S
FAIRMONT       CLOUDY    34  31  88 SE5       29.71F WCI  30
GLENCOE        CLOUDY    36  33  90 CALM      29.74S
FARIBAULT      CLOUDY    37  34  87 SE5       29.74F
OWATONNA       PTCLDY    39  34  81 SE9       29.73F
WASECA         CLEAR     36  32  87 SE8       29.73F
ALBERT LEA     CLOUDY    36  34  93 SE5       29.72F
$$
MNZ078>079-086>088-094>096-281000-
   Southeast Minnesota

CITY           SKY/WX    TMP DP  RH WIND       PRES   REMARKS
ROCHESTER      CLOUDY    37  34  89 SE13      29.73F
RED WING       MOCLDY    43  30  61 SE8       29.76F
STANTON        CLOUDY    41  33  73 S7        29.73F
WINONA         CLOUDY    37  32  81 CALM      29.79F
AUSTIN         CLOUDY    37  34  87 SE5       29.73F
PRESTON        CLOUDY    39  34  82 SE10      29.75F
$$
ABBREVIATIONS USED IN REMARKS
   TC - TEMPERATURES IN CELSIUS
  WCI - WIND CHILL INDEX
   HX - HEAT INDEX
  VSB - VISIBILITY
$$




USA.gov is the U.S. government's official web portal to all federal, state and local government web resources and services.